Temp
68 67 67 67 68 68 67 67 67 66 66 65 64 64 63 62 58 56 55 58 61 64 66 65 66 67 68 68 69 68 68 69 71 71 70 69 69 69 68 68 68 69 69 69 69 69 70 70 70 71 72 72 73 74 74 74 74 74 74 75 75 75 75 75 74 75 75 75 74 75 75 76 77 78
68 68 68 68 68 69 67 67 67 66 65 64 64 64 64 63 60 59 56 58 61 62 64 67 66 67 68 68 68 68 68 69 70 70 70 69 70 68 68 68 68 68 68 67 67 68 68 68 69 69 69 70 71 72 73 73 73 73 73 74 74 74 74 74 74 74 75 75 75 74 75 75 76 76
68 68 68 68 67 68 68 67 67 67 66 64 64 64 63 62 63 61 58 55 60 63 63 65 68 67 67 68 68 68 68 68 70 69 69 69 69 69 69 68 67 67 67 67 67 67 66 67 68 68 68 69 70 71 71 72 72 73 73 73 74 73 73 73 73 73 74 75 75 74 74 74 75 75
68 68 67 68 67 68 67 67 67 66 67 67 65 64 63 62 63 62 60 58 59 63 65 66 67 68 67 67 66 67 67 68 69 68 68 68 69 69 69 68 68 67 67 67 67 66 66 66 67 68 68 69 70 70 70 70 71 71 72 72 73 74 73 72 72 73 73 73 73 74 74 74 75 75
67 67 67 68 68 68 67 67 67 67 67 66 65 65 63 62 62 61 60 59 60 64 65 65 66 68 67 66 67 66 67 67 67 68 68 68 68 68 69 70 69 68 67 66 66 66 66 66 67 67 68 69 69 70 70 70 69 70 70 70 71 72 72 71 71 72 73 73 73 73 74 74 73 74
67 67 67 67 68 67 66 66 66 67 67 66 65 64 64 63 63 63 61 60 59 60 64 64 66 66 67 64 68 66 65 66 67 66 66 68 68 68 69 69 70 69 68 66 65 66 66 66 66 67 67 68 68 68 69 68 68 69 69 69 69 69 69 69 70 71 72 72 73 73 73 73 73 73
67 66 66 67 67 67 66 66 66 66 66 66 65 65 65 63 64 63 62 61 60 61 63 66 64 65 66 65 65 66 66 66 66 65 65 67 68 68 69 69 70 69 68 66 66 66 66 66 66 66 67 67 67 67 66 66 67 67 67 67 68 68 68 68 69 70 71 71 72 73 73 72 73 73
67 67 66 66 66 66 65 65 65 65 65 65 65 64 65 64 64 64 63 62 61 62 61 64 64 65 65 66 67 67 66 65 65 65 66 67 67 68 69 69 69 69 67 66 66 66 66 65 65 65 65 65 65 64 64 64 65 65 65 65 66 66 66 66 67 69 69 69 70 72 72 72 72 71
68 67 66 67 66 66 65 65 65 65 64 65 64 64 65 64 64 64 64 63 62 60 60 62 65 65 65 66 66 66 64 64 64 65 65 65 66 66 69 69 70 69 67 67 67 66 66 66 66 66 66 65 65 64 64 63 64 64 64 64 64 65 65 65 65 66 67 67 68 68 69 70 71 70
67 67 67 66 66 65 65 65 65 65 65 65 64 64 64 64 64 63 63 63 62 61 61 61 61 64 64 64 64 65 64 63 62 63 64 65 66 65 66 68 69 70 70 69 70 68 68 68 67 66 66 66 65 65 64 63 62 62 62 61 61 63 64 64 65 65 65 65 66 67 67 68 68 69
67 66 66 66 66 65 65 65 65 65 65 65 65 65 64 65 63 63 63 62 62 61 60 61 62 62 65 64 62 65 65 63 62 61 61 62 65 65 65 65 67 69 69 69 68 68 68 67 68 66 65 65 65 65 64 63 62 61 60 59 59 60 60 61 63 64 64 64 64 64 64 66 68 69
67 66 66 66 66 66 66 66 66 65 65 65 65 65 64 64 63 62 62 62 61 60 61 61 61 63 63 63 64 64 63 61 62 63 62 60 61 63 65 65 65 66 67 67 69 69 69 69 68 66 66 66 65 65 65 65 64 63 61 60 61 61 60 60 61 62 62 62 61 62 62 62 65 67
66 66 66 66 67 66 66 63 62 63 62 66 64 65 64 64 63 63 63 62 61 61 60 60 62 62 62 62 61 61 60 60 60 63 63 61 63 64 63 65 66 66 65 66 67 67 69 69 69 70 70 71 71 70 67 68 68 65 62 61 61 62 61 60 60 61 61 61 61 60 61 62 63 65
66 66 66 66 66 64 64 63 61 59 58 58 63 65 65 64 63 63 62 61 61 61 60 60 61 61 61 62 62 61 62 62 63 62 62 60 62 62 62 63 65 68 66 65 64 67 69 68 68 69 69 71 71 72 74 74 72 68 64 63 62 62 62 61 60 60 60 60 60 60 59 61 62 63
67 67 66 66 66 66 65 66 63 61 59 59 57 57 58 60 64 63 61 61 62 60 60 62 61 60 60 62 63 62 62 62 62 61 62 61 61 60 58 57 63 68 67 64 63 63 67 67 65 66 68 69 70 72 73 71 69 66 65 64 63 62 62 62 61 61 60 59 59 59 59 59 61 61
67 67 67 66 66 66 66 67 66 65 63 60 59 58 57 57 57 58 62 62 62 62 60 60 62 62 61 62 62 62 62 62 62 62 62 61 60 59 58 59 58 64 67 63 61 61 66 67 65 65 67 69 70 72 69 68 67 66 64 64 64 63 62 62 63 63 61 61 61 61 61 61 61 61
66 66 66 66 66 66 65 66 67 66 66 61 59 57 57 56 56 57 57 58 62 63 61 60 60 61 61 60 62 63 63 63 60 61 60 61 61 60 59 60 61 63 66 63 60 59 64 65 64 64 67 69 70 71 69 67 67 66 65 64 64 63 63 62 62 62 62 61 61 61 61 60 61 60
67 66 66 65 66 66 66 66 66 65 64 64 64 63 63 64 63 59 56 55 55 57 60 60 59 62 63 61 62 65 64 61 59 59 59 60 60 60 60 62 62 63 65 61 60 58 62 65 64 63 66 69 69 70 69 67 66 66 65 64 63 63 62 62 62 62 62 61 61 60 59 59 59 59
67 66 66 65 65 66 65 65 65 64 64 64 64 63 63 64 64 64 65 64 64 63 63 62 62 62 63 63 63 63 63 62 62 61 60 60 60 61 62 61 62 63 65 64 61 55 61 65 63 64 66 69 69 71 68 66 66 65 64 64 63 63 62 62 62 61 61 61 60 59 59 58 58 57
65 66 65 65 64 64 64 62 58 60 63 62 61 61 62 62 63 62 60 59 60 63 64 64 64 64 64 59 61 61 61 61 61 61 61 60 59 58 57 57 62 62 66 65 61 58 59 64 63 64 67 68 67 69 71 68 65 64 64 64 63 62 61 61 61 61 61 61 60 59 58 56 56 55
65 65 64 64 64 63 64 61 57 58 58 60 59 58 59 60 60 61 63 59 56 56 54 53 54 54 54 55 55 54 55 58 58 58 57 56 59 57 55 57 59 60 64 66 65 61 57 62 63 63 66 66 66 68 69 71 68 65 63 63 62 62 61 60 60 60 61 60 60 60 59 57 56 56
64 64 64 64 63 63 64 58 55 55 57 58 58 58 58 58 59 61 63 63 63 57 56 56 56 56 56 56 55 55 55 55 55 58 56 59 59 56 57 55 58 61 62 64 67 60 58 62 63 62 64 65 67 68 69 70 70 67 63 62 62 61 61 60 59 60 60 60 60 59 58 57 56 61
61 60 63 65 64 63 61 55 54 54 55 58 58 58 58 58 59 61 62 61 60 60 61 61 62 61 60 61 62 63 58 57 59 62 61 62 59 56 57 57 57 55 58 64 67 58 58 59 62 61 58 58 65 68 68 69 70 72 73 72 69 62 61 60 59 58 58 59 59 59 57 56 56 65
60 60 60 61 59 56 55 53 51 50 51 56 57 57 57 58 58 62 60 59 58 58 58 59 60 61 62 62 63 63 63 63 64 63 64 63 62 59 57 57 56 54 57 63 66 58 59 60 59 63 61 57 58 65 68 68 70 71 73 73 73 66 63 61 59 57 57 57 57 58 57 55 57 67
60 60 61 62 59 54 52 50 48 47 49 51 55 55 57 59 59 56 56 57 57 58 59 59 60 60 61 62 62 62 62 63 64 64 64 63 62 60 57 55 55 56 59 63 63 60 55 58 58 61 60 60 61 62 64 67 70 70 72 73 72 73 71 69 66 68 58 55 55 55 55 55 54 64
60 62 62 62 59 54 51 48 46 46 47 49 53 56 51 51 52 55 56 57 58 57 57 57 58 59 59 60 60 61 61 62 62 62 62 62 62 61 60 57 55 54 56 63 61 59 56 55 58 58 59 59 60 62 61 64 67 70 71 72 72 72 72 71 69 69 68 66 63 58 59 54 55 57
63 62 61 61 57 52 49 46 45 45 46 48 51 48 48 49 51 52 55 57 57 55 56 56 56 57 57 57 57 58 59 60 60 60 60 61 61 60 61 61 60 58 59 61 62 61 58 56 59 58 58 60 59 61 62 61 64 69 69 69 71 73 73 73 69 69 69 67 66 56 54 54 54 56
62 60 60 59 51 48 44 44 45 47 48 53 48 46 48 50 51 54 57 55 55 55 54 54 54 55 56 56 56 56 58 58 58 58 60 60 61 60 59 60 60 60 60 60 61 61 60 58 58 60 60 60 59 59 59 64 65 67 67 69 70 72 72 71 70 69 69 68 67 62 61 59 58 57
61 55 49 46 45 46 46 46 48 49 49 47 49 49 49 51 55 56 55 54 54 53 53 53 53 54 55 54 55 56 56 57 58 58 59 60 60 60 60 59 59 60 61 61 60 60 60 59 59 61 61 61 60 62 62 62 65 66 67 67 67 69 69 70 70 69 68 68 67 64 63 63 60 59
52 52 50 49 49 50 52 55 56 57 54 50 51 52 53 56 54 55 54 54 53 52 52 52 52 52 53 54 55 56 56 55 55 55 55 55 56 57 56 56 57 60 60 60 60 60 60 61 61 61 60 61 62 62 64 63 64 67 68 67 68 68 68 69 69 69 68 66 66 65 66 66 64 61
58 56 56 55 51 51 54 56 55 55 55 55 55 55 54 54 54 54 53 53 52 51 51 51 52 53 53 54 55 54 53 53 54 55 55 54 54 55 55 54 54 56 59 61 61 60 61 61 62 62 60 61 63 63 65 66 65 65 67 68 68 66 68 68 68 69 69 68 67 66 65 65 65 63
57 57 55 54 57 57 58 57 57 56 56 56 56 55 54 53 54 54 54 54 52 51 51 51 52 52 53 52 52 53 52 52 53 55 54 53 53 54 54 53 53 55 57 59 60 62 63 62 62 63 63 62 62 64 65 65 65 66 67 68 68 69 69 67 67 68 69 68 65 64 63 64 64 64
56 56 57 58 58 58 58 57 56 56 55 55 55 55 54 53 53 52 51 50 50 50 51 51 51 51 51 51 52 51 51 52 52 54 53 53 52 53 53 52 53 53 54 55 57 59 60 60 63 64 64 65 65 66 65 63 65 67 67 67 67 67 68 68 68 67 67 65 64 64 63 63 65 65
55 57 57 58 58 57 57 57 56 56 56 55 55 54 53 53 53 52 51 51 49 51 50 50 50 50 50 50 50 50 50 51 52 53 52 52 53 51 51 51 52 54 55 55 56 56 58 59 60 64 65 65 63 60 61 64 64 65 66 67 67 66 68 68 67 68 66 66 66 63 63 62 64 65
57 55 56 57 57 56 57 56 55 55 55 55 54 54 53 52 52 51 51 50 49 50 50 50 50 50 49 49 49 49 50 50 51 52 53 52 52 51 51 51 51 53 54 54 55 56 56 57 58 61 62 61 60 60 58 58 63 65 65 65 65 65 65 66 66 66 66 66 66 64 64 64 63 65
55 55 55 56 55 56 56 55 55 55 55 53 53 53 53 53 52 51 51 49 49 50 50 49 49 49 49 49 49 49 49 49 50 50 51 51 50 50 50 51 52 53 53 53 54 55 56 57 57 57 59 59 59 57 58 56 56 58 63 63 64 65 66 66 66 66 65 65 65 65 64 63 64 65
56 56 56 56 55 55 55 54 54 54 54 53 53 53 52 52 51 51 50 49 49 50 49 49 49 49 49 49 49 49 49 48 48 49 50 50 50 50 49 50 51 52 53 53 54 55 56 56 57 55 56 59 58 59 58 58 54 53 54 61 65 66 67 66 65 65 66 66 66 65 65 66 66 67
56 55 55 55 55 54 55 55 54 53 53 53 53 52 52 51 51 50 50 49 50 50 50 49 49 49 49 49 48 48 48 49 49 49 50 50 49 48 48 48 49 51 52 53 54 55 56 56 56 56 55 54 57 59 56 57 57 55 51 53 61 66 66 66 64 64 65 66 66 66 67 66 67 68
55 55 55 55 54 54 53 53 53 52 51 52 51 51 51 50 50 49 49 49 49 49 49 49 49 48 48 49 49 48 47 47 48 49 50 50 50 48 48 48 49 51 51 52 54 55 56 56 56 56 56 54 52 53 56 54 52 55 53 49 52 58 66 66 65 66 66 65 66 67 68 68 65 63
55 55 54 54 52 52 52 52 51 51 51 50 50 49 49 49 48 48 48 48 48 47 48 48 48 47 48 49 48 49 49 49 49 49 50 51 51 50 49 50 50 50 50 51 52 54 55 55 56 56 57 56 57 58 57 56 57 58 59 55 49 51 55 65 67 66 66 66 66 65 63 64 64 65
54 54 53 53 52 51 51 51 50 50 49 48 48 48 47 46 47 48 47 47 46 46 48 48 47 47 48 48 48 48 48 48 50 50 51 51 51 50 50 50 49 50 49 50 52 53 54 55 59 59 61 59 60 60 58 55 54 55 56 57 53 51 50 52 64 68 66 66 66 65 63 63 63 63
53 52 51 51 51 50 50 49 49 49 49 49 48 47 46 46 46 44 45 44 44 46 46 47 47 47 47 48 48 48 48 48 49 49 50 50 50 50 50 50 49 49 49 49 51 52 55 58 60 60 59 59 58 55 53 54 53 54 55 57 58 55 54 52 51 53 58 63 66 65 63 63 64 63
52 51 50 50 50 49 49 49 48 49 49 48 47 46 46 46 45 45 45 44 44 45 46 46 46 47 47 48 48 49 49 49 50 49 50 51 51 50 50 50 50 49 49 51 53 55 55 57 58 58 57 57 57 57 54 54 55 55 55 55 56 58 59 56 54 54 54 53 53 55 60 63 63 62
51 51 50 49 49 48 48 48 48 48 47 47 47 46 46 46 45 44 44 44 44 44 45 45 46 46 46 48 49 49 50 50 50 49 50 51 51 51 51 51 51 50 50 51 52 53 54 55 56 57 55 55 56 55 55 55 55 55 55 56 56 56 56 58 59 57 56 55 54 54 53 53 55 56
50 50 49 48 48 49 48 48 47 46 46 46 46 45 45 45 45 45 44 44 44 43 44 45 45 46 47 48 48 48 50 48 49 50 50 51 51 51 52 52 52 51 50 51 51 52 53 54 55 56 55 56 56 55 56 56 55 55 55 55 55 55 56 56 55 55 55 55 54 53 53 54 54 53
MSLP
1018.41 1018.53 1018.58 1018.61 1018.53 1018.49 1018.58 1018.73 1018.85 1018.97 1019.05 1019.14 1019.26 1019.38 1019.58 1019.90 1020.29 1020.26 1019.82 1019.26 1018.97 1018.17 1018.05 1018.14 1017.22 1016.93 1016.93 1016.97 1016.85 1016.82 1016.66 1016.46 1016.34 1016.14 1015.97 1015.82 1015.66 1015.46 1015.34 1015.22 1015.05 1014.82 1014.53 1014.34 1014.14 1013.97 1013.73 1013.53 1013.38 1013.22 1013.14 1013.09 1013.05 1013.02 1012.93 1012.93 1012.97 1013.05 1013.17 1013.34 1013.46 1013.58 1013.78 1014.05 1014.34 1014.49 1014.61 1014.73 1014.85 1015.02 1015.14 1015.29 1015.41 1015.58
1018.29 1018.38 1018.46 1018.49 1018.53 1018.34 1018.46 1018.49 1018.53 1018.70 1018.82 1018.93 1019.02 1019.09 1019.17 1019.38 1019.66 1019.73 1019.82 1019.38 1018.90 1018.41 1017.90 1017.78 1017.46 1016.90 1016.85 1016.82 1016.78 1016.70 1016.53 1016.29 1016.22 1016.02 1015.85 1015.70 1015.49 1015.29 1015.09 1014.90 1014.78 1014.61 1014.34 1014.09 1013.85 1013.66 1013.46 1013.26 1013.09 1012.90 1012.78 1012.73 1012.70 1012.66 1012.61 1012.61 1012.58 1012.66 1012.73 1012.85 1013.02 1013.17 1013.34 1013.53 1013.82 1014.09 1014.22 1014.29 1014.41 1014.53 1014.66 1014.78 1014.93 1015.09
1018.22 1018.26 1018.29 1018.29 1018.34 1018.22 1018.22 1018.26 1018.34 1018.46 1018.61 1018.70 1018.73 1018.85 1019.02 1019.17 1019.17 1019.34 1019.61 1019.78 1018.66 1018.34 1018.05 1017.41 1017.02 1017.02 1016.85 1016.78 1016.66 1016.49 1016.38 1016.22 1016.05 1015.90 1015.73 1015.53 1015.34 1015.09 1014.85 1014.66 1014.46 1014.34 1014.14 1013.85 1013.58 1013.34 1013.17 1012.97 1012.78 1012.61 1012.46 1012.34 1012.29 1012.26 1012.22 1012.26 1012.22 1012.22 1012.26 1012.38 1012.49 1012.66 1012.82 1013.02 1013.22 1013.49 1013.70 1013.82 1013.93 1014.05 1014.17 1014.29 1014.49 1014.66
1018.09 1018.17 1018.22 1018.14 1018.14 1018.02 1018.09 1018.14 1018.14 1018.26 1018.26 1018.34 1018.46 1018.58 1018.78 1018.90 1018.93 1019.14 1019.34 1019.26 1018.49 1018.02 1017.82 1017.34 1016.93 1016.73 1016.78 1016.61 1016.66 1016.41 1016.17 1015.97 1015.93 1015.78 1015.53 1015.34 1015.14 1014.93 1014.70 1014.46 1014.22 1013.97 1013.82 1013.61 1013.38 1013.05 1012.85 1012.66 1012.41 1012.26 1012.09 1011.93 1011.85 1011.82 1011.78 1011.82 1011.82 1011.82 1011.82 1011.85 1011.97 1012.14 1012.34 1012.49 1012.70 1012.93 1013.14 1013.38 1013.53 1013.61 1013.70 1013.82 1014.02 1014.17
1018.02 1018.05 1018.09 1017.97 1017.85 1017.85 1018.02 1017.90 1017.93 1018.05 1018.09 1018.14 1018.26 1018.38 1018.58 1018.66 1018.82 1018.97 1019.05 1018.93 1018.34 1017.70 1017.53 1017.41 1017.05 1016.61 1016.61 1016.41 1016.22 1016.34 1016.14 1015.90 1015.70 1015.58 1015.34 1015.14 1014.97 1014.78 1014.53 1014.26 1013.97 1013.73 1013.49 1013.29 1013.09 1012.85 1012.53 1012.34 1012.09 1011.90 1011.70 1011.58 1011.46 1011.38 1011.34 1011.34 1011.38 1011.38 1011.41 1011.46 1011.49 1011.61 1011.82 1011.97 1012.17 1012.34 1012.58 1012.78 1012.93 1013.09 1013.26 1013.38 1013.53 1013.73
1017.82 1017.85 1017.90 1017.78 1017.70 1017.73 1017.82 1017.73 1017.78 1017.78 1017.85 1018.02 1018.14 1018.22 1018.34 1018.38 1018.41 1018.49 1018.70 1018.53 1018.49 1017.82 1017.41 1017.38 1016.90 1016.82 1016.58 1016.53 1015.82 1016.14 1016.09 1015.93 1015.66 1015.49 1015.22 1014.90 1014.70 1014.49 1014.29 1014.09 1013.73 1013.46 1013.26 1013.02 1012.78 1012.53 1012.29 1011.97 1011.73 1011.49 1011.29 1011.14 1011.05 1010.93 1010.90 1010.85 1010.90 1010.90 1010.93 1011.02 1011.05 1011.17 1011.34 1011.49 1011.70 1011.82 1012.02 1012.22 1012.41 1012.58 1012.73 1012.90 1013.05 1013.26
1017.61 1017.73 1017.70 1017.58 1017.49 1017.58 1017.66 1017.58 1017.53 1017.58 1017.66 1017.73 1017.90 1017.90 1017.97 1018.14 1018.09 1018.14 1018.26 1018.29 1018.22 1017.82 1017.22 1016.97 1016.97 1016.66 1016.46 1016.41 1015.93 1015.78 1015.73 1015.73 1015.70 1015.53 1015.17 1014.85 1014.49 1014.22 1014.05 1013.85 1013.49 1013.17 1013.02 1012.73 1012.46 1012.22 1011.93 1011.66 1011.34 1011.09 1010.90 1010.73 1010.61 1010.53 1010.46 1010.41 1010.41 1010.41 1010.46 1010.53 1010.61 1010.70 1010.82 1011.02 1011.22 1011.34 1011.53 1011.70 1011.90 1012.05 1012.22 1012.41 1012.58 1012.78
1017.41 1017.46 1017.49 1017.38 1017.34 1017.41 1017.49 1017.38 1017.38 1017.38 1017.46 1017.53 1017.61 1017.66 1017.66 1017.78 1017.78 1017.73 1017.90 1017.97 1017.97 1017.53 1017.46 1016.73 1016.90 1016.53 1016.46 1016.02 1015.70 1015.58 1015.53 1015.49 1015.41 1015.29 1014.97 1014.66 1014.41 1014.05 1013.78 1013.53 1013.22 1012.90 1012.70 1012.46 1012.22 1011.90 1011.58 1011.29 1011.02 1010.73 1010.49 1010.29 1010.14 1010.05 1010.02 1009.93 1009.93 1009.93 1009.97 1010.02 1010.09 1010.22 1010.29 1010.46 1010.66 1010.85 1011.05 1011.22 1011.34 1011.49 1011.70 1011.90 1012.14 1012.34
1017.09 1017.17 1017.22 1017.05 1017.14 1017.26 1017.34 1017.22 1017.22 1017.22 1017.29 1017.26 1017.38 1017.38 1017.34 1017.46 1017.41 1017.46 1017.58 1017.61 1017.70 1017.70 1017.41 1016.73 1016.38 1016.34 1016.22 1015.90 1015.70 1015.49 1015.61 1015.29 1015.05 1014.82 1014.73 1014.53 1014.22 1013.85 1013.49 1013.17 1012.85 1012.58 1012.38 1012.09 1011.85 1011.58 1011.26 1010.93 1010.66 1010.34 1010.05 1009.85 1009.66 1009.53 1009.49 1009.46 1009.41 1009.41 1009.41 1009.49 1009.58 1009.70 1009.82 1009.93 1010.09 1010.29 1010.49 1010.66 1010.82 1010.97 1011.17 1011.41 1011.66 1011.90
1016.78 1016.93 1016.93 1016.90 1016.93 1017.05 1017.05 1016.93 1016.90 1016.97 1017.05 1017.05 1017.14 1017.14 1017.14 1017.14 1017.17 1017.26 1017.26 1017.34 1017.41 1017.41 1017.14 1016.85 1016.49 1016.17 1016.14 1015.82 1015.61 1015.34 1015.46 1015.46 1015.09 1014.61 1014.26 1014.09 1013.90 1013.70 1013.38 1012.97 1012.58 1012.26 1012.05 1011.82 1011.41 1011.14 1010.82 1010.49 1010.26 1009.97 1009.70 1009.41 1009.22 1009.05 1008.93 1008.90 1008.85 1008.85 1008.90 1008.93 1009.02 1009.14 1009.26 1009.38 1009.49 1009.70 1009.93 1010.09 1010.29 1010.46 1010.70 1010.90 1011.17 1011.41
1016.49 1016.61 1016.66 1016.61 1016.66 1016.70 1016.70 1016.70 1016.70 1016.73 1016.78 1016.78 1016.78 1016.78 1016.82 1016.85 1017.02 1017.05 1017.02 1017.09 1017.17 1017.14 1016.90 1016.58 1016.29 1016.09 1015.70 1015.78 1015.61 1015.09 1015.14 1015.14 1015.09 1014.85 1014.41 1014.02 1013.49 1013.34 1013.22 1012.82 1012.29 1012.02 1011.73 1011.41 1011.22 1010.93 1010.66 1010.29 1009.97 1009.61 1009.34 1009.02 1008.78 1008.58 1008.41 1008.29 1008.29 1008.29 1008.38 1008.41 1008.49 1008.58 1008.70 1008.82 1008.93 1009.14 1009.34 1009.53 1009.73 1009.97 1010.22 1010.41 1010.66 1010.93
1016.22 1016.26 1016.29 1016.29 1016.26 1016.29 1016.26 1016.34 1016.34 1016.49 1016.49 1016.49 1016.53 1016.46 1016.58 1016.66 1016.82 1016.82 1016.78 1016.85 1016.90 1016.85 1016.70 1016.46 1016.09 1015.78 1015.61 1015.38 1015.29 1015.09 1015.02 1014.90 1014.46 1014.22 1014.22 1014.09 1013.53 1013.05 1012.70 1012.58 1012.34 1011.78 1011.58 1011.17 1010.70 1010.34 1010.14 1009.85 1009.53 1009.22 1008.90 1008.58 1008.29 1008.05 1007.85 1007.70 1007.70 1007.70 1007.78 1007.90 1007.93 1008.05 1008.17 1008.34 1008.46 1008.61 1008.82 1009.02 1009.22 1009.46 1009.73 1010.02 1010.22 1010.41
1015.93 1015.97 1015.93 1015.93 1015.85 1015.85 1015.85 1015.90 1015.97 1016.05 1016.14 1016.26 1016.34 1016.22 1016.29 1016.41 1016.53 1016.61 1016.58 1016.58 1016.58 1016.53 1016.49 1016.22 1015.82 1015.58 1015.41 1015.17 1015.22 1015.14 1014.93 1014.78 1014.58 1014.02 1013.90 1013.66 1013.17 1012.82 1012.49 1012.02 1011.78 1011.58 1011.38 1010.90 1010.61 1010.22 1009.97 1009.73 1009.34 1008.93 1008.58 1008.14 1007.85 1007.46 1007.29 1007.09 1007.02 1007.05 1007.17 1007.29 1007.41 1007.53 1007.66 1007.82 1008.02 1008.14 1008.29 1008.49 1008.70 1008.93 1009.22 1009.49 1009.73 1009.93
1015.61 1015.61 1015.58 1015.49 1015.46 1015.53 1015.58 1015.66 1015.70 1015.82 1015.85 1015.90 1015.93 1015.85 1015.97 1016.14 1016.29 1016.38 1016.34 1016.29 1016.22 1016.22 1016.22 1016.05 1015.73 1015.49 1015.22 1014.90 1014.73 1014.73 1014.49 1014.29 1014.14 1014.02 1013.73 1013.53 1012.90 1012.61 1012.26 1011.90 1011.49 1011.09 1010.93 1010.70 1010.41 1010.02 1009.70 1009.66 1009.17 1008.82 1008.46 1007.82 1007.58 1007.17 1006.78 1006.49 1006.38 1006.38 1006.49 1006.61 1006.78 1006.90 1007.05 1007.26 1007.46 1007.61 1007.78 1007.93 1008.09 1008.38 1008.66 1008.97 1009.22 1009.41
1015.26 1015.22 1015.22 1015.26 1015.22 1015.29 1015.34 1015.34 1015.38 1015.41 1015.41 1015.46 1015.58 1015.66 1015.70 1015.73 1015.90 1016.02 1016.05 1015.93 1015.82 1015.85 1015.82 1015.53 1015.46 1015.26 1014.97 1014.58 1014.29 1014.26 1014.09 1014.05 1014.02 1013.82 1013.53 1013.26 1012.85 1012.70 1012.41 1011.93 1010.97 1010.70 1010.66 1010.58 1010.38 1009.70 1009.26 1009.29 1009.05 1008.49 1008.02 1007.58 1007.26 1006.85 1006.41 1006.09 1006.02 1005.97 1005.97 1006.02 1006.14 1006.34 1006.49 1006.66 1006.85 1007.05 1007.26 1007.41 1007.58 1007.82 1008.14 1008.46 1008.70 1008.93
1014.93 1014.93 1014.97 1014.97 1015.02 1015.02 1014.97 1015.02 1015.05 1015.05 1015.09 1015.14 1015.17 1015.29 1015.38 1015.46 1015.53 1015.53 1015.53 1015.49 1015.46 1015.38 1015.38 1015.26 1015.05 1014.90 1014.70 1014.41 1014.14 1013.82 1013.78 1013.66 1013.58 1013.41 1013.26 1013.02 1012.78 1012.49 1012.29 1011.93 1011.46 1010.29 1010.34 1010.29 1010.14 1009.41 1008.97 1008.90 1008.61 1008.09 1007.41 1007.05 1006.70 1006.29 1006.02 1005.78 1005.61 1005.49 1005.46 1005.49 1005.61 1005.73 1005.90 1006.05 1006.22 1006.46 1006.66 1006.90 1007.05 1007.26 1007.58 1007.90 1008.17 1008.41
1014.53 1014.61 1014.73 1014.78 1014.78 1014.73 1014.78 1014.85 1014.82 1014.85 1014.85 1014.90 1014.97 1015.02 1015.09 1015.14 1015.17 1015.17 1015.17 1015.14 1015.02 1014.82 1014.97 1015.02 1014.85 1014.70 1014.41 1014.34 1013.85 1013.41 1013.34 1013.38 1013.41 1013.17 1013.02 1012.61 1012.38 1012.17 1012.02 1011.46 1010.90 1010.22 1010.09 1010.17 1009.78 1009.17 1008.49 1008.41 1007.93 1007.61 1006.82 1006.49 1006.09 1005.73 1005.46 1005.29 1005.14 1005.05 1004.97 1005.02 1005.09 1005.17 1005.34 1005.49 1005.66 1005.85 1006.14 1006.38 1006.58 1006.78 1007.02 1007.29 1007.58 1007.85
1014.17 1014.29 1014.49 1014.66 1014.61 1014.53 1014.61 1014.61 1014.66 1014.66 1014.70 1014.70 1014.73 1014.78 1014.78 1014.70 1014.58 1014.70 1014.78 1014.82 1014.85 1014.85 1014.78 1014.66 1014.58 1014.05 1014.05 1014.02 1013.66 1013.17 1013.14 1013.22 1013.09 1012.97 1012.78 1012.46 1012.05 1011.85 1011.61 1011.05 1010.70 1010.02 1009.93 1010.02 1009.53 1008.73 1008.09 1007.82 1007.46 1006.90 1006.22 1005.82 1005.41 1005.14 1004.82 1004.73 1004.61 1004.49 1004.46 1004.49 1004.53 1004.66 1004.82 1004.97 1005.14 1005.38 1005.61 1005.85 1006.05 1006.29 1006.49 1006.78 1007.02 1007.29
1013.73 1013.93 1014.17 1014.34 1014.38 1014.29 1014.34 1014.29 1014.29 1014.34 1014.41 1014.49 1014.53 1014.53 1014.46 1014.34 1014.29 1014.22 1014.22 1014.22 1014.22 1014.26 1014.29 1014.26 1014.09 1013.78 1013.61 1013.53 1013.41 1013.22 1012.97 1012.90 1012.70 1012.61 1012.41 1012.17 1011.85 1011.53 1011.17 1010.78 1010.22 1009.70 1009.34 1009.22 1009.46 1008.66 1007.53 1007.29 1007.02 1006.02 1005.61 1005.14 1004.78 1004.38 1004.14 1004.05 1003.97 1003.93 1003.90 1003.93 1004.02 1004.14 1004.26 1004.46 1004.61 1004.82 1005.05 1005.29 1005.53 1005.78 1006.02 1006.29 1006.53 1006.82
1013.46 1013.70 1013.90 1014.14 1014.22 1014.14 1014.02 1013.90 1014.02 1014.14 1014.26 1014.34 1014.38 1014.38 1014.26 1014.17 1014.14 1014.05 1013.85 1013.85 1013.90 1013.90 1013.90 1013.82 1013.70 1013.49 1013.34 1013.34 1013.29 1013.22 1013.05 1012.82 1012.49 1012.34 1012.14 1011.90 1011.73 1011.53 1011.09 1010.58 1009.70 1009.34 1008.49 1008.66 1008.82 1008.26 1007.38 1007.02 1006.58 1005.34 1004.90 1004.61 1004.22 1003.78 1003.53 1003.26 1003.29 1003.26 1003.26 1003.34 1003.41 1003.53 1003.70 1003.90 1004.09 1004.29 1004.49 1004.73 1005.02 1005.26 1005.49 1005.78 1006.05 1006.29
1013.29 1013.53 1013.78 1013.97 1014.17 1014.14 1013.93 1013.78 1013.93 1014.09 1014.29 1014.29 1014.26 1014.14 1014.02 1013.97 1014.02 1013.82 1013.58 1013.58 1013.61 1013.66 1013.66 1013.66 1013.58 1013.46 1013.34 1013.17 1013.02 1012.85 1012.70 1012.61 1012.46 1012.34 1012.09 1011.66 1011.26 1011.14 1010.70 1009.93 1009.46 1008.73 1008.34 1007.82 1007.90 1007.78 1007.14 1006.41 1005.97 1005.02 1004.41 1004.09 1003.70 1003.26 1002.90 1002.66 1002.53 1002.58 1002.61 1002.66 1002.78 1002.93 1003.14 1003.34 1003.53 1003.78 1003.97 1004.22 1004.49 1004.78 1005.02 1005.29 1005.58 1005.90
1013.49 1013.61 1013.66 1013.70 1013.90 1013.93 1013.73 1013.78 1013.93 1014.05 1014.17 1014.09 1013.97 1013.93 1013.93 1013.90 1013.78 1013.46 1013.38 1013.38 1013.34 1013.38 1013.38 1013.29 1013.14 1012.97 1012.85 1012.70 1012.46 1012.29 1012.14 1012.02 1012.05 1012.09 1011.73 1011.05 1010.93 1010.73 1010.34 1009.73 1009.05 1008.29 1007.97 1007.17 1007.09 1007.17 1006.46 1005.82 1005.38 1004.82 1003.90 1003.46 1002.85 1002.58 1002.29 1002.14 1001.97 1001.90 1001.93 1002.02 1002.09 1002.29 1002.49 1002.73 1002.97 1003.17 1003.41 1003.66 1003.90 1004.26 1004.53 1004.85 1005.26 1005.82
1014.05 1014.09 1013.41 1013.41 1013.53 1013.58 1013.53 1013.61 1013.78 1013.93 1014.09 1013.93 1013.85 1013.82 1013.82 1013.70 1013.49 1013.26 1013.34 1013.46 1013.41 1013.34 1013.22 1012.97 1012.85 1012.58 1012.41 1012.26 1012.02 1011.70 1011.58 1011.49 1011.41 1011.26 1011.02 1010.66 1010.66 1010.41 1009.93 1009.49 1008.90 1008.17 1007.02 1006.49 1006.46 1006.66 1005.78 1005.70 1004.73 1004.58 1004.02 1003.34 1002.05 1001.78 1001.61 1001.53 1001.41 1001.29 1001.17 1001.26 1001.49 1001.61 1001.90 1002.09 1002.34 1002.61 1002.85 1003.09 1003.38 1003.70 1004.05 1004.41 1005.02 1005.41
1013.49 1013.53 1013.78 1013.58 1013.53 1013.53 1013.46 1013.46 1013.70 1013.90 1013.97 1013.82 1013.73 1013.78 1013.70 1013.53 1013.29 1013.14 1013.41 1013.53 1013.61 1013.49 1013.29 1013.02 1012.70 1012.46 1012.14 1011.90 1011.66 1011.46 1011.22 1011.02 1010.82 1010.61 1010.38 1010.14 1010.05 1009.97 1009.66 1009.26 1009.02 1008.46 1006.70 1005.66 1006.05 1006.09 1005.17 1004.97 1004.14 1003.66 1003.61 1003.41 1002.29 1001.22 1001.05 1000.93 1000.78 1000.61 1000.58 1000.70 1000.78 1000.90 1001.29 1001.61 1001.90 1002.09 1002.34 1002.61 1002.90 1003.22 1003.58 1004.05 1004.53 1004.78
1012.78 1012.85 1012.85 1013.02 1013.26 1013.34 1013.34 1013.46 1013.66 1013.78 1013.82 1013.82 1013.73 1013.61 1013.38 1013.14 1013.09 1013.41 1013.53 1013.49 1013.49 1013.34 1013.09 1012.85 1012.61 1012.29 1011.93 1011.70 1011.41 1011.17 1010.93 1010.61 1010.34 1010.14 1009.93 1009.73 1009.66 1009.58 1009.29 1008.93 1008.46 1007.61 1006.26 1005.38 1005.22 1005.49 1004.82 1004.22 1003.58 1003.02 1002.61 1002.46 1001.70 1001.41 1000.73 1000.70 1000.26 1000.17 999.97 999.97 1000.22 1000.26 1000.66 1001.02 1001.29 1001.61 1001.97 1002.26 1002.46 1002.78 1003.17 1003.58 1003.90 1003.93
1012.34 1012.41 1012.53 1012.73 1012.93 1013.09 1013.22 1013.41 1013.53 1013.58 1013.61 1013.70 1013.66 1013.26 1013.22 1013.29 1013.46 1013.58 1013.53 1013.41 1013.26 1013.17 1013.09 1012.85 1012.53 1012.22 1011.93 1011.61 1011.29 1011.02 1010.73 1010.46 1010.22 1010.02 1009.73 1009.41 1009.09 1008.82 1008.53 1008.38 1007.90 1007.09 1005.49 1004.46 1004.82 1004.66 1004.14 1003.26 1002.78 1002.26 1001.73 1001.78 1001.09 1000.97 1000.82 1000.41 1000.02 999.73 999.49 999.41 999.49 999.70 999.93 1000.34 1000.78 1001.02 1001.29 1001.73 1002.14 1002.46 1002.70 1003.02 1003.29 1003.46
1011.93 1012.14 1012.41 1012.61 1012.90 1013.05 1013.17 1013.29 1013.34 1013.34 1013.38 1013.58 1013.34 1013.22 1013.34 1013.46 1013.53 1013.66 1013.49 1013.22 1013.17 1013.14 1012.97 1012.82 1012.58 1012.22 1011.97 1011.78 1011.41 1011.09 1010.82 1010.46 1010.26 1009.93 1009.53 1009.05 1008.66 1008.17 1007.61 1007.17 1006.90 1006.41 1005.14 1004.17 1003.78 1003.46 1003.09 1002.29 1001.41 1001.34 1000.90 1000.73 1000.73 1000.34 1000.29 1000.22 999.78 999.29 999.34 999.17 999.17 999.22 999.38 999.66 1000.17 1000.46 1000.66 1001.05 1001.38 1001.82 1002.41 1002.85 1003.14 1003.29
1012.02 1012.17 1012.38 1012.61 1012.90 1013.05 1013.17 1013.22 1013.17 1013.09 1013.14 1013.14 1013.14 1013.29 1013.41 1013.53 1013.58 1013.41 1013.17 1013.22 1013.22 1013.05 1012.93 1012.78 1012.53 1012.29 1012.02 1011.82 1011.53 1011.22 1010.90 1010.58 1010.22 1009.78 1009.29 1008.73 1008.22 1007.82 1007.26 1006.70 1006.14 1005.46 1004.66 1003.85 1003.02 1002.38 1001.78 1001.09 1000.14 999.66 999.66 999.78 999.90 999.90 999.78 999.29 999.26 999.09 999.09 998.85 998.90 998.82 998.97 999.29 999.61 999.97 1000.22 1000.53 1001.02 1001.66 1002.26 1002.66 1002.85 1003.22
1012.09 1012.34 1012.58 1012.70 1012.61 1012.66 1012.73 1012.82 1012.97 1013.02 1013.17 1013.22 1013.14 1013.17 1013.29 1013.38 1013.26 1013.22 1013.22 1013.22 1013.14 1013.09 1012.97 1012.82 1012.58 1012.29 1012.02 1011.90 1011.61 1011.26 1010.90 1010.46 1009.97 1009.53 1008.97 1008.49 1007.97 1007.41 1006.90 1006.29 1005.58 1004.66 1003.90 1003.05 1002.38 1001.58 1000.82 999.85 998.90 998.46 998.53 998.70 999.05 999.05 999.26 999.05 998.82 998.78 998.73 998.93 999.02 998.78 998.82 998.93 999.17 999.58 999.90 1000.22 1000.61 1001.09 1001.41 1001.61 1002.22 1002.58
1012.22 1012.34 1012.38 1012.26 1012.34 1012.46 1012.49 1012.58 1012.70 1012.66 1012.90 1013.02 1013.02 1013.09 1013.14 1013.05 1013.09 1013.17 1013.22 1013.22 1013.17 1013.17 1013.02 1012.82 1012.58 1012.34 1012.05 1011.78 1011.41 1011.09 1010.78 1010.41 1009.93 1009.53 1009.05 1008.46 1007.70 1007.17 1006.66 1005.93 1004.82 1003.90 1003.22 1002.58 1001.85 1000.93 999.97 998.82 998.02 997.90 998.05 998.17 998.41 998.70 998.66 998.82 998.66 998.26 998.34 998.61 998.58 998.58 998.49 998.70 998.90 999.14 999.53 999.97 1000.26 1000.58 1000.85 1001.14 1001.53 1002.05
1011.90 1011.97 1012.09 1012.34 1012.53 1012.49 1012.46 1012.49 1012.58 1012.78 1012.90 1012.85 1013.02 1013.14 1013.14 1013.17 1013.22 1013.26 1013.26 1013.22 1013.26 1013.22 1013.14 1012.85 1012.61 1012.34 1012.02 1011.66 1011.29 1010.97 1010.66 1010.26 1009.70 1009.29 1008.90 1008.46 1007.78 1007.17 1006.58 1006.05 1004.90 1003.46 1002.38 1001.73 1001.05 1000.22 999.29 998.26 997.49 997.53 997.82 997.93 998.09 998.14 998.14 998.26 998.29 997.97 998.02 998.14 998.34 998.73 998.41 998.46 998.61 998.82 999.09 999.46 999.85 1000.26 1000.70 1001.02 1001.34 1001.66
1012.02 1012.17 1012.29 1012.34 1012.38 1012.58 1012.61 1012.70 1012.78 1012.82 1012.85 1012.93 1013.02 1013.17 1013.22 1013.22 1013.17 1013.14 1013.14 1013.14 1013.26 1013.22 1013.09 1012.85 1012.53 1012.22 1011.90 1011.66 1011.29 1010.90 1010.53 1010.09 1009.49 1009.14 1008.85 1008.46 1007.78 1007.09 1006.53 1005.85 1004.78 1003.58 1002.34 1001.09 1000.02 999.02 998.34 997.73 997.26 997.17 997.34 997.49 997.73 997.70 997.82 997.90 997.82 997.73 997.85 997.90 998.02 998.02 998.14 998.38 998.53 998.66 998.78 999.17 999.78 1000.14 1000.41 1000.61 1000.93 1001.26
1012.17 1012.26 1012.14 1012.14 1012.29 1012.41 1012.58 1012.66 1012.82 1012.90 1012.93 1013.09 1013.17 1013.17 1013.22 1013.22 1013.17 1013.22 1013.26 1013.29 1013.22 1013.14 1012.93 1012.70 1012.49 1012.22 1011.90 1011.58 1011.22 1010.90 1010.46 1009.90 1009.38 1008.93 1008.70 1008.22 1007.90 1007.02 1006.49 1005.93 1004.93 1003.90 1002.73 1001.26 999.93 998.73 997.93 997.38 996.90 996.78 996.90 997.02 997.05 997.17 997.46 997.73 997.41 997.41 997.66 997.78 997.93 998.05 998.14 998.17 998.29 998.53 998.73 999.17 999.58 999.85 1000.22 1000.41 1000.53 1000.78
1011.90 1011.97 1012.14 1012.26 1012.34 1012.46 1012.49 1012.61 1012.78 1012.90 1012.93 1013.02 1013.09 1013.22 1013.22 1013.26 1013.17 1013.22 1013.26 1013.17 1013.17 1012.97 1012.82 1012.66 1012.46 1012.22 1011.93 1011.61 1011.26 1010.90 1010.49 1009.82 1009.26 1008.90 1008.82 1008.29 1007.82 1007.34 1006.66 1005.97 1004.97 1004.02 1003.22 1002.14 1000.82 999.49 998.26 997.46 996.85 996.41 996.53 996.78 997.05 997.38 997.38 997.09 997.22 997.38 997.46 997.58 997.78 997.97 997.97 998.09 998.26 998.41 998.66 998.85 999.26 999.78 1000.09 1000.34 1000.41 1000.53
1011.85 1012.05 1012.09 1012.38 1012.49 1012.66 1012.66 1012.78 1012.97 1013.02 1013.02 1013.02 1013.09 1013.17 1013.26 1013.29 1013.26 1013.26 1013.22 1013.17 1013.09 1012.90 1012.78 1012.58 1012.41 1012.17 1011.93 1011.66 1011.29 1010.97 1010.53 1010.05 1009.41 1008.82 1008.46 1008.22 1007.78 1007.29 1006.73 1006.09 1005.17 1004.22 1003.29 1002.38 1001.09 999.85 998.97 998.14 997.38 996.46 996.38 996.78 997.05 997.26 997.38 997.41 997.05 997.17 997.38 997.58 997.66 997.90 998.09 998.26 998.41 998.46 998.49 998.82 998.97 999.46 999.82 1000.02 1000.26 1000.29
1011.93 1012.14 1012.29 1012.53 1012.70 1012.73 1012.78 1012.93 1013.02 1013.05 1013.05 1013.22 1013.26 1013.26 1013.17 1013.17 1013.22 1013.26 1013.22 1013.22 1013.14 1012.93 1012.73 1012.58 1012.34 1012.09 1011.85 1011.58 1011.26 1010.93 1010.53 1010.14 1009.61 1009.05 1008.58 1008.22 1007.78 1007.14 1006.61 1006.05 1005.46 1004.53 1003.61 1002.78 1001.82 1000.61 999.73 998.82 998.14 997.34 996.29 996.58 996.85 997.26 997.34 997.73 997.58 997.49 997.38 997.49 997.49 997.66 997.70 997.85 998.26 998.58 998.61 998.73 998.93 999.26 999.61 999.85 999.97 1000.09
1012.05 1012.26 1012.34 1012.49 1012.66 1012.73 1012.85 1013.02 1013.05 1013.14 1013.17 1013.22 1013.26 1013.26 1013.29 1013.26 1013.29 1013.34 1013.34 1013.29 1013.05 1012.85 1012.73 1012.58 1012.34 1012.05 1011.82 1011.53 1011.26 1010.90 1010.53 1010.22 1009.78 1009.17 1008.78 1008.29 1007.85 1007.46 1006.93 1006.14 1005.53 1004.78 1003.82 1002.93 1002.14 1001.17 1000.17 999.34 998.41 998.14 997.34 996.38 996.70 996.93 997.22 997.66 998.02 998.09 997.97 997.29 997.22 997.41 997.49 997.78 998.14 998.41 998.53 998.61 998.90 999.02 999.22 999.46 999.66 999.73
1012.05 1012.38 1012.46 1012.61 1012.73 1012.85 1012.90 1012.93 1013.02 1013.14 1013.26 1013.26 1013.29 1013.29 1013.34 1013.38 1013.41 1013.41 1013.29 1013.17 1012.97 1012.82 1012.61 1012.46 1012.22 1012.02 1011.78 1011.58 1011.34 1010.93 1010.49 1010.05 1009.70 1009.22 1008.78 1008.38 1007.93 1007.41 1007.17 1006.78 1005.97 1005.05 1004.17 1003.22 1002.34 1001.53 1000.78 999.93 999.02 998.53 998.61 998.22 997.02 996.70 997.26 997.61 997.82 998.09 998.38 998.14 997.49 997.17 997.22 997.58 998.02 998.29 998.29 998.34 998.53 998.70 998.82 999.17 999.29 999.29
1012.22 1012.34 1012.41 1012.61 1012.82 1012.90 1013.02 1013.09 1013.14 1013.26 1013.34 1013.38 1013.41 1013.46 1013.41 1013.41 1013.46 1013.38 1013.29 1013.17 1013.05 1012.90 1012.66 1012.41 1012.17 1012.09 1011.90 1011.61 1011.34 1011.05 1010.70 1010.22 1009.70 1009.22 1008.78 1008.29 1008.02 1007.70 1007.26 1006.78 1006.17 1005.17 1004.53 1003.70 1002.73 1002.02 1001.26 1000.34 999.61 999.26 999.26 999.14 999.05 998.38 997.73 998.14 998.70 998.66 998.53 998.29 998.14 997.73 997.17 997.29 997.70 997.78 998.05 998.34 998.41 998.41 998.58 998.61 998.70 998.78
1012.34 1012.41 1012.61 1012.78 1012.97 1013.09 1013.17 1013.29 1013.29 1013.38 1013.46 1013.53 1013.61 1013.66 1013.61 1013.53 1013.61 1013.49 1013.34 1013.26 1013.14 1012.97 1012.73 1012.49 1012.38 1012.14 1011.85 1011.66 1011.34 1010.93 1010.58 1010.22 1009.82 1009.34 1008.78 1008.29 1007.90 1007.70 1007.38 1006.90 1006.41 1005.78 1005.02 1004.17 1003.34 1002.61 1001.85 1001.09 1000.38 999.90 999.82 999.82 999.38 999.02 998.61 998.49 998.58 998.38 998.22 998.26 998.46 998.34 998.09 997.26 997.22 997.58 997.85 997.97 998.17 998.49 998.82 998.85 999.17 999.26
1012.46 1012.61 1012.82 1012.97 1013.14 1013.26 1013.26 1013.38 1013.49 1013.58 1013.66 1013.78 1013.70 1013.66 1013.78 1013.82 1013.66 1013.49 1013.46 1013.41 1013.34 1013.05 1012.73 1012.53 1012.41 1012.22 1011.97 1011.73 1011.41 1011.14 1010.70 1010.17 1009.73 1009.26 1008.73 1008.29 1007.90 1007.58 1007.26 1006.73 1006.26 1005.93 1005.46 1004.61 1003.90 1003.22 1002.46 1001.85 1001.14 1000.49 1000.02 999.61 999.09 998.61 998.29 998.34 998.78 998.93 998.78 998.70 998.46 998.26 998.02 997.66 997.14 997.05 997.66 997.82 998.02 998.29 998.70 998.90 999.09 999.34
1012.46 1012.70 1013.05 1013.22 1013.26 1013.41 1013.49 1013.49 1013.66 1013.70 1013.73 1013.82 1013.82 1013.82 1013.82 1013.82 1013.82 1013.93 1013.73 1013.61 1013.41 1013.09 1012.85 1012.61 1012.49 1012.26 1012.02 1011.73 1011.46 1011.09 1010.78 1010.34 1009.82 1009.34 1008.85 1008.41 1007.90 1007.46 1007.14 1006.85 1006.53 1006.09 1005.70 1005.17 1004.53 1003.93 1002.97 1002.09 1001.46 1000.85 1000.34 999.85 999.26 998.97 999.66 999.93 999.82 999.53 999.29 999.05 998.78 998.61 998.46 998.26 997.90 997.70 997.78 997.70 997.78 998.22 998.66 998.97 998.93 999.22
1012.70 1012.85 1013.14 1013.41 1013.58 1013.66 1013.70 1013.70 1013.73 1013.70 1013.73 1013.82 1013.90 1013.97 1013.90 1013.85 1013.90 1013.82 1013.61 1013.53 1013.38 1013.09 1012.93 1012.73 1012.53 1012.38 1012.09 1011.78 1011.46 1011.14 1010.73 1010.26 1009.90 1009.49 1009.02 1008.53 1008.17 1007.82 1007.34 1007.05 1006.73 1006.46 1006.05 1005.38 1004.61 1004.02 1003.49 1002.85 1002.02 1001.38 1000.90 1000.61 1000.53 1000.38 1000.29 1000.17 1000.14 999.90 999.70 999.41 999.29 999.14 998.97 998.90 998.82 998.34 998.17 998.29 998.38 998.46 998.38 998.29 998.73 999.14
1012.78 1012.97 1013.29 1013.49 1013.61 1013.70 1013.70 1013.73 1013.78 1013.82 1013.85 1013.90 1013.93 1014.02 1013.93 1013.90 1013.85 1013.90 1013.82 1013.66 1013.46 1013.29 1013.05 1012.85 1012.66 1012.41 1012.14 1011.82 1011.46 1011.05 1010.66 1010.34 1010.02 1009.66 1009.14 1008.66 1008.29 1007.97 1007.58 1007.09 1006.70 1006.41 1005.93 1005.46 1004.90 1004.22 1003.73 1003.14 1002.58 1002.02 1001.61 1001.58 1001.49 1001.17 1000.97 1000.66 1000.53 1000.49 1000.26 1000.02 999.78 999.53 999.58 999.29 999.14 998.70 998.41 998.73 998.90 998.78 998.85 998.78 998.66 998.66
1012.90 1013.05 1013.34 1013.53 1013.61 1013.66 1013.70 1013.70 1013.78 1013.90 1013.97 1013.97 1014.02 1013.97 1013.97 1013.93 1013.82 1013.82 1013.78 1013.70 1013.53 1013.41 1013.17 1012.97 1012.73 1012.41 1012.14 1011.82 1011.53 1011.14 1010.70 1010.38 1010.09 1009.61 1009.22 1008.73 1008.34 1007.97 1007.61 1007.22 1006.78 1006.41 1006.17 1005.70 1005.26 1004.66 1004.17 1003.66 1003.14 1002.66 1002.41 1002.29 1002.02 1001.78 1001.41 1001.17 1001.22 1000.97 1000.73 1000.49 1000.38 1000.17 1000.05 999.90 999.73 999.46 999.38 999.61 999.78 999.61 999.46 999.46 999.34 999.29
Wind_Speed
3 3 4 4 3 3 2 3 5 5 5 6 6 6 6 6 2 3 2 2 3 2 2 3 3 1 1 4 5 6 6 9 11 8 8 8 8 10 15 16 16 17 18 18 18 18 19 19 18 18 18 18 18 19 20 20 20 21 21 21 21 20 21 21 21 22 22 21 21 21 21 21 22 21
3 3 3 3 3 3 3 4 4 5 6 6 7 7 6 6 5 4 4 5 3 4 2 4 4 2 4 4 5 5 7 11 12 8 8 8 9 14 16 16 16 16 17 18 18 18 18 18 18 18 18 17 17 18 19 20 20 21 22 22 22 21 20 19 19 21 22 21 21 21 21 21 20 20
3 4 5 3 4 4 4 4 4 4 5 6 6 6 5 7 7 5 4 4 3 4 4 4 5 5 5 6 6 5 5 8 11 9 8 8 12 18 13 15 16 16 16 17 17 17 17 18 18 18 18 18 17 18 19 20 20 21 22 22 22 21 20 20 20 20 21 21 21 21 21 21 20 20
4 4 5 5 5 4 3 3 4 4 5 5 5 4 5 6 7 6 5 6 10 4 5 6 7 8 6 5 7 7 6 6 11 8 8 9 14 10 8 12 15 16 16 16 17 17 17 18 19 19 19 18 18 18 18 19 20 21 21 22 22 21 21 21 21 20 20 21 21 21 21 21 20 20
4 4 5 6 6 4 4 4 3 3 4 4 4 4 3 4 5 7 7 6 9 6 5 7 6 6 7 6 4 7 7 7 6 8 9 9 8 8 8 9 13 16 16 16 16 17 18 18 19 19 19 19 19 19 19 19 19 20 21 21 21 21 21 20 20 21 21 21 21 21 21 20 20 19
4 4 6 6 6 4 5 4 4 4 3 4 5 5 5 6 5 5 5 6 6 13 3 5 5 6 4 8 7 6 8 8 9 10 9 8 8 8 8 8 9 14 16 17 17 17 18 18 18 19 20 20 19 19 19 19 19 20 20 21 21 21 20 20 20 20 20 21 21 21 20 20 20 19
5 5 6 7 5 3 4 4 4 4 4 4 5 6 5 6 6 5 7 5 9 12 12 6 5 4 4 6 9 8 6 7 7 9 9 9 9 8 8 9 8 13 15 17 18 18 18 18 18 19 20 20 20 19 19 19 19 19 20 20 21 21 20 20 20 20 20 21 21 21 20 20 19 19
5 6 6 7 5 4 4 5 4 4 4 4 4 5 5 6 7 6 4 6 7 10 11 8 5 5 7 7 7 7 7 8 7 7 8 8 9 9 9 9 8 10 15 17 18 18 18 18 18 18 19 20 20 19 19 18 18 18 19 20 20 21 21 20 20 21 21 21 21 20 20 20 20 19
6 6 6 7 5 4 4 4 4 3 5 4 4 5 5 5 5 5 5 6 6 7 10 9 5 5 7 6 8 8 8 9 8 7 7 8 9 9 9 9 8 12 14 16 16 17 18 18 18 18 19 19 20 20 19 19 18 19 19 19 20 20 21 20 20 20 20 20 20 20 20 20 19 19
6 6 6 6 5 4 5 5 4 4 5 4 5 5 5 5 5 5 5 5 5 8 11 11 11 7 7 7 11 7 6 10 12 10 7 7 7 8 8 8 8 8 8 9 10 12 14 16 17 18 18 19 19 20 19 19 19 19 19 19 20 20 21 21 21 20 20 20 20 20 20 20 19 19
6 6 6 6 5 6 5 5 5 5 5 4 6 6 5 5 5 5 5 4 6 9 10 10 10 9 7 6 13 10 8 10 10 10 9 8 6 6 7 9 8 8 10 12 15 15 15 18 16 17 20 21 21 20 20 19 19 19 19 19 20 20 21 21 21 21 20 20 20 20 20 20 20 20
6 6 6 6 6 7 6 6 6 5 5 4 5 4 4 4 5 5 5 5 7 7 9 9 9 9 10 7 6 10 10 10 7 5 5 11 12 9 7 8 10 9 9 10 10 10 11 12 14 16 16 18 19 21 20 21 20 20 19 19 20 20 21 21 21 21 20 20 19 19 19 19 20 20
6 6 6 7 7 7 8 10 8 7 6 4 5 5 4 4 4 6 7 8 7 7 8 9 9 10 11 9 7 11 11 10 9 8 8 12 11 8 9 9 7 8 9 9 9 9 8 10 11 11 12 11 15 16 18 16 21 21 19 19 20 21 21 21 21 21 20 20 19 19 19 20 20 20
6 7 7 7 10 11 11 10 11 11 11 11 8 7 4 5 6 8 8 8 8 7 8 9 10 10 12 12 11 11 13 12 10 9 9 12 12 11 12 9 7 7 8 9 9 9 9 11 13 12 13 12 12 12 12 11 11 14 18 20 21 21 21 21 21 21 20 20 20 20 20 20 21 20
7 6 7 6 7 9 9 9 11 11 11 11 11 12 11 9 8 8 9 9 8 8 8 10 10 11 12 11 9 12 13 11 10 10 10 12 12 12 13 14 10 4 5 8 11 12 10 9 12 12 13 13 12 12 12 15 15 17 18 19 20 21 21 21 21 21 21 21 20 20 20 20 20 20
7 7 6 5 4 5 6 6 6 7 9 9 10 10 11 11 12 13 11 10 9 9 8 9 11 12 12 13 11 14 11 11 9 10 11 12 13 13 13 13 14 9 8 10 12 16 10 9 12 12 12 12 12 13 15 17 17 17 18 19 19 20 21 21 21 22 22 21 21 21 21 20 20 20
8 6 5 5 5 5 8 7 5 5 5 7 9 9 9 9 11 12 14 14 13 9 9 10 12 13 13 12 12 13 12 9 11 12 12 13 12 12 13 14 16 14 10 12 16 17 12 10 13 13 12 12 12 13 15 19 20 19 19 19 19 20 20 21 22 22 22 21 21 21 21 21 20 20
7 7 6 5 5 4 5 4 5 5 5 5 4 5 6 6 8 9 12 13 13 12 9 10 12 13 12 12 13 15 12 12 12 12 13 13 14 14 15 16 18 17 11 13 14 16 13 11 12 15 14 12 12 12 15 19 19 19 19 19 20 20 20 21 21 21 21 21 21 21 21 21 21 21
8 7 5 6 6 6 5 5 6 5 5 5 6 7 8 6 6 6 6 7 6 6 7 9 11 13 12 12 12 13 13 13 11 11 14 15 15 14 14 15 14 13 10 11 8 15 12 11 14 15 13 13 13 12 14 18 20 20 19 19 20 20 21 21 21 21 21 21 21 21 21 21 21 20
6 5 5 5 6 7 6 7 9 6 4 6 7 8 8 7 7 8 7 7 6 6 7 8 10 11 13 12 11 12 12 11 11 13 12 12 12 13 13 15 13 12 9 9 11 12 12 11 15 17 13 13 14 12 12 15 18 19 20 20 20 21 21 21 21 21 21 21 21 21 21 21 21 20
4 3 3 4 5 6 7 7 6 4 4 5 7 7 7 7 7 8 4 5 8 9 10 12 13 14 15 16 17 17 19 15 12 10 11 13 11 12 14 13 12 13 11 10 10 12 14 11 13 16 13 12 14 13 12 11 15 18 20 20 20 20 21 21 21 21 21 21 20 20 20 20 20 20
1 4 1 6 6 6 6 5 4 5 5 6 7 7 8 8 8 6 2 3 4 6 9 11 12 14 15 16 17 18 17 16 11 8 12 13 11 12 13 14 15 15 13 13 11 12 13 12 12 15 13 13 12 13 12 12 13 15 16 21 21 20 21 21 21 20 20 21 20 20 20 20 18 12
5 2 8 11 9 8 7 5 5 6 7 7 7 7 6 7 6 5 3 6 7 7 7 7 8 10 10 10 10 10 11 12 13 11 12 11 10 11 13 15 14 15 12 9 6 10 12 13 13 13 13 12 10 10 10 11 11 11 10 11 13 19 20 21 21 21 21 20 20 20 20 19 16 11
3 6 4 6 7 9 8 5 5 6 9 7 6 5 6 6 8 3 4 4 5 7 8 10 10 11 11 10 10 10 10 10 10 10 9 9 10 12 14 15 15 15 17 11 10 13 14 14 15 12 14 14 10 5 7 10 11 12 11 11 11 14 18 19 17 21 20 19 20 20 20 18 17 12
8 7 8 4 7 9 6 5 6 8 9 8 6 6 7 7 2 3 4 5 5 7 9 9 10 10 9 9 9 9 10 9 8 8 9 10 10 10 11 11 13 15 17 16 16 12 14 14 16 14 13 13 13 11 9 8 7 10 12 12 11 10 9 10 9 10 14 18 19 19 18 18 21 16
6 7 3 3 3 4 4 5 8 8 8 8 7 8 10 7 6 6 5 5 6 6 7 8 8 8 9 9 9 9 9 9 9 9 10 11 11 11 10 11 12 14 18 17 19 16 16 15 14 14 13 11 12 12 11 9 9 9 9 10 10 10 11 11 10 11 11 11 10 14 15 20 21 20
5 1 2 1 1 2 4 6 8 8 9 7 8 9 6 7 5 4 4 5 6 6 7 7 8 8 8 9 10 9 9 9 10 10 11 12 13 12 12 13 13 15 18 19 18 19 17 15 16 15 15 12 13 11 11 9 8 9 8 9 11 11 12 10 11 11 10 10 10 14 14 15 17 19
2 2 1 0 2 1 4 7 9 10 8 6 4 4 6 1 1 3 3 4 5 6 7 7 8 8 8 8 9 10 10 11 12 12 12 12 13 13 12 14 16 16 18 18 19 18 17 17 16 15 16 14 13 11 9 9 9 8 8 6 10 10 10 9 10 9 9 8 8 8 8 9 11 12
1 2 1 1 5 6 7 9 7 6 3 3 1 2 3 4 2 0 1 2 4 5 6 7 8 8 8 8 9 11 12 12 11 11 10 11 12 12 13 14 15 16 15 15 16 16 16 17 15 12 13 13 13 11 10 11 8 8 7 7 7 6 8 9 9 9 9 8 9 9 12 11 11 11
1 2 2 5 6 5 4 2 2 2 3 5 4 5 4 2 1 1 1 2 3 5 6 6 7 8 9 9 10 11 10 10 9 9 10 11 11 11 11 12 14 15 14 15 15 15 15 15 12 9 10 10 11 12 11 11 10 7 6 8 5 3 6 8 8 8 8 9 9 9 9 9 10 11
1 1 1 1 2 1 1 4 6 7 7 6 4 3 3 2 2 1 1 2 3 3 5 6 7 8 8 9 8 8 9 10 9 8 9 10 11 12 12 11 15 15 16 15 14 13 12 12 9 10 9 9 11 12 11 11 11 9 7 7 8 7 6 9 8 8 9 9 8 7 7 7 8 10
0 0 0 3 4 4 5 3 3 3 4 3 3 3 2 2 2 2 3 2 1 2 4 6 6 7 6 7 7 8 8 8 8 8 9 9 11 11 11 11 13 14 16 16 16 16 13 12 7 9 10 9 10 10 11 11 11 9 7 7 8 6 4 9 9 8 8 8 8 8 9 9 9 9
1 1 2 2 3 4 3 3 2 2 2 3 2 2 2 2 1 1 2 2 2 3 4 4 5 6 6 7 7 7 8 9 9 8 9 9 9 12 10 10 13 14 16 18 18 17 16 15 9 10 10 10 10 10 9 9 10 7 6 7 7 8 5 6 8 8 7 8 9 8 9 8 8 9
2 2 2 2 3 3 3 2 2 1 1 1 1 2 2 2 2 2 2 2 3 4 4 4 5 6 6 7 7 8 8 9 9 8 8 10 10 10 10 11 12 13 13 15 16 16 17 16 13 6 10 7 1 4 3 10 9 6 3 4 6 7 7 6 7 8 8 8 9 8 7 7 7 7
2 2 3 2 2 2 2 2 1 1 1 1 1 1 1 1 2 2 2 3 4 4 4 4 4 5 5 6 7 7 8 9 10 10 8 8 9 8 9 10 12 14 14 15 15 16 16 14 14 7 10 7 5 3 12 9 2 3 4 3 3 2 1 2 3 5 9 7 7 9 8 6 6 6
2 2 3 3 2 2 2 2 2 1 1 1 1 0 1 1 2 3 3 4 4 4 4 4 5 5 5 6 7 7 8 9 9 9 9 9 9 11 10 10 11 13 13 13 14 15 15 14 11 11 3 9 10 5 1 12 11 3 2 5 6 7 7 6 6 4 4 6 7 7 8 7 6 6
3 2 3 3 3 2 3 2 2 2 1 1 0 1 1 2 2 2 3 4 3 3 4 4 4 5 5 6 7 7 7 7 9 9 9 9 8 8 9 10 11 12 13 13 12 13 14 13 11 10 7 5 9 6 4 2 9 10 4 1 4 6 6 7 8 8 7 8 7 8 6 6 5 6
3 3 3 3 3 3 3 2 2 1 1 1 0 1 1 1 2 2 3 2 3 3 4 4 4 5 5 5 6 7 8 8 8 8 8 8 9 10 9 10 10 12 12 12 12 13 13 12 12 13 11 9 3 5 5 3 3 8 9 2 2 4 7 7 7 9 7 7 7 7 6 6 6 6
3 4 4 4 3 3 3 2 2 2 1 1 1 1 1 1 2 2 2 3 3 4 4 4 4 5 6 6 6 6 7 8 9 9 9 8 7 9 10 11 11 11 11 12 11 12 12 14 13 13 12 9 9 8 5 4 6 4 8 13 4 4 5 7 7 9 6 8 7 6 4 2 5 5
3 3 3 3 2 2 2 2 2 1 1 0 0 0 1 1 2 2 2 3 3 3 3 3 5 5 5 6 7 7 7 7 8 8 9 9 8 7 7 8 7 9 9 11 11 11 12 14 15 14 11 8 6 4 3 4 4 4 7 13 16 6 4 4 8 8 7 7 6 7 7 7 6 3
4 4 3 2 2 2 2 2 1 1 1 0 0 0 1 1 1 2 2 3 3 3 4 4 4 5 5 6 6 7 8 8 8 8 9 9 9 8 9 11 8 8 9 11 11 11 12 12 15 19 13 8 6 2 4 9 12 9 9 9 13 19 17 10 2 7 6 5 6 6 6 6 6 5
3 3 3 2 2 2 2 2 1 1 1 0 0 1 1 1 1 2 2 2 3 3 3 4 5 5 5 6 6 6 7 8 8 9 9 9 9 9 8 8 8 9 10 10 10 11 11 11 13 11 11 11 11 14 12 9 8 8 8 7 8 11 17 19 18 17 8 1 6 5 4 3 3 6
3 3 3 3 2 2 2 1 1 1 0 0 1 1 1 1 1 2 2 3 3 3 3 4 4 5 5 6 6 6 6 7 8 8 9 9 9 9 9 8 8 8 8 8 8 8 8 10 10 10 10 11 11 9 11 10 8 8 9 9 9 7 7 12 15 19 20 19 14 7 2 2 4 5
4 4 3 3 3 2 2 1 1 1 1 0 0 0 1 1 1 2 2 2 3 3 3 4 4 5 5 6 6 6 6 6 7 8 8 8 8 8 8 9 8 7 7 7 9 9 8 8 8 8 9 10 9 9 11 10 10 9 9 8 8 9 9 7 5 10 17 20 18 14 17 15 11 8
3 4 4 3 3 2 2 1 1 1 1 1 1 1 1 1 1 1 1 2 2 3 3 4 4 5 5 6 6 7 7 8 8 7 7 7 8 7 8 8 9 8 8 9 9 10 9 8 8 7 7 8 8 8 8 9 10 9 10 11 11 10 9 7 9 11 12 12 15 16 14 14 14 15
Wind_Direction
215 224 211 218 237 239 204 209 223 221 219 220 219 216 224 210 229 268 272 262 271 280 221 303 292 220 284 325 322 316 308 312 318 314 310 307 305 306 306 306 306 305 305 303 300 297 292 286 279 273 267 261 256 253 249 244 240 239 238 238 240 241 239 236 237 235 231 229 228 227 227 230 234 234
223 226 227 218 234 244 211 212 215 218 217 217 216 219 217 195 205 217 249 269 216 274 264 227 270 275 304 312 303 307 304 308 314 305 306 307 305 305 304 307 306 303 300 299 297 295 291 286 281 276 270 263 256 252 250 246 240 238 238 237 238 240 240 238 234 235 232 229 228 227 227 227 230 233
222 226 238 222 233 230 226 223 213 221 219 221 218 219 211 212 213 218 214 265 248 214 268 261 246 273 296 305 299 295 294 302 309 307 303 301 302 308 308 302 300 298 296 295 295 294 291 287 282 277 271 265 258 252 248 246 244 240 238 236 236 237 237 237 236 234 234 230 227 226 226 227 228 230
217 226 236 237 234 231 225 232 220 218 220 218 206 201 206 218 220 220 223 240 265 203 249 280 290 287 287 285 295 299 297 294 305 301 298 299 306 303 297 295 295 297 296 294 293 293 291 287 284 279 274 268 262 255 249 245 243 242 241 239 236 234 234 233 232 232 232 232 230 227 225 225 226 229
221 227 235 244 242 227 233 236 234 230 224 213 216 210 202 214 216 217 225 246 271 267 223 258 270 295 308 294 266 295 301 306 304 304 300 303 301 299 295 298 293 295 298 297 294 293 291 288 284 281 276 272 266 259 253 246 242 241 241 241 239 235 232 230 228 229 229 229 228 226 224 224 225 226
218 222 233 242 245 218 231 239 239 234 226 209 219 215 211 222 221 208 221 240 257 283 262 258 259 269 272 289 298 300 310 306 311 308 305 302 300 296 299 298 296 294 297 297 295 293 292 289 285 281 277 273 268 262 256 250 244 241 240 238 237 236 233 231 228 227 227 227 227 227 224 223 223 225
219 222 228 240 240 214 227 231 241 232 233 224 224 235 218 234 237 223 218 239 265 278 282 274 275 274 280 279 300 306 297 291 291 295 298 304 303 297 293 294 294 294 294 295 295 294 292 289 287 283 278 274 269 263 257 251 246 242 240 237 236 235 232 229 227 227 227 227 227 226 225 224 223 224
215 223 229 241 236 226 235 243 238 229 228 224 228 237 241 232 245 238 211 226 247 274 284 280 268 278 294 289 289 290 293 294 293 287 289 289 289 292 294 290 289 293 293 292 291 291 289 286 285 283 280 275 269 264 257 251 246 241 238 236 236 234 233 229 227 225 225 226 227 227 226 225 225 224
226 226 230 247 236 221 241 251 245 231 229 229 227 238 244 244 246 245 231 233 232 254 270 279 267 266 275 277 286 291 302 304 293 279 279 289 290 291 290 291 285 288 289 287 286 286 286 285 284 282 279 276 271 265 258 251 245 241 237 234 233 233 232 230 226 225 223 223 224 226 226 225 225 224
223 231 234 240 233 226 230 251 255 243 242 233 234 239 245 245 249 253 249 238 240 252 263 272 284 280 279 292 289 280 290 301 304 300 288 284 280 288 294 290 292 297 298 302 297 291 286 284 282 282 279 276 272 267 261 253 245 240 237 233 231 230 230 229 227 224 223 221 222 223 224 225 223 222
221 226 234 236 228 228 226 237 245 250 251 241 241 234 241 245 245 255 257 244 254 259 265 273 270 278 275 271 290 292 298 292 280 285 292 296 281 277 288 297 295 297 295 287 279 276 278 281 283 282 281 277 272 267 262 256 247 240 236 232 229 228 228 228 227 225 222 220 219 220 221 223 223 221
226 227 231 234 228 225 224 223 234 227 248 244 255 240 230 236 245 257 264 269 267 261 266 270 278 282 288 279 265 285 293 296 281 245 267 297 301 296 290 284 297 297 291 292 294 286 277 272 271 269 268 269 268 265 262 256 249 242 235 231 229 228 227 227 227 225 223 220 217 217 218 220 221 221
229 232 231 232 232 226 230 230 232 233 227 231 248 251 214 235 237 267 272 270 265 264 265 272 279 285 285 281 279 288 290 283 280 295 297 295 290 281 294 292 282 277 282 283 287 287 284 289 288 292 292 286 282 269 255 254 250 242 235 229 228 226 225 225 225 224 223 220 217 215 216 217 219 220
229 233 228 234 235 237 238 240 240 241 240 234 233 247 226 229 253 260 262 265 263 263 263 276 284 285 286 289 286 285 283 285 286 283 286 294 298 302 300 285 270 285 280 284 286 291 294 293 290 284 284 282 279 281 272 258 243 240 232 229 226 224 223 223 222 222 221 219 216 215 215 216 216 217
239 231 227 233 241 241 241 241 242 243 243 242 235 239 243 241 240 254 256 258 259 258 261 274 279 281 285 283 283 284 286 285 282 282 289 294 298 301 306 307 301 229 271 295 295 288 283 287 285 282 277 275 274 273 269 264 248 240 236 230 227 224 222 221 221 220 219 218 216 215 215 215 215 215
235 240 234 227 222 225 225 230 238 240 243 243 245 244 244 243 237 234 241 254 263 259 261 271 277 284 282 288 289 287 286 285 283 285 292 292 291 294 296 296 295 293 304 293 298 291 289 282 277 275 269 266 266 263 265 265 253 242 236 232 228 224 222 220 219 219 218 217 216 214 214 214 214 213
227 229 232 238 227 227 228 235 235 239 251 249 246 252 259 255 244 238 238 239 243 256 266 270 278 277 281 284 282 279 281 287 287 291 291 292 291 291 291 291 295 296 302 300 295 293 291 281 280 277 271 265 263 263 256 252 251 246 238 232 227 224 221 219 218 218 218 216 215 213 212 212 213 213
224 220 216 232 249 226 221 223 226 227 232 242 253 250 250 251 252 237 231 234 239 240 246 257 270 275 273 273 276 282 288 289 287 290 288 290 291 292 290 292 292 291 291 287 292 289 283 275 275 275 271 260 256 253 254 254 251 245 239 232 226 224 221 219 217 216 216 215 213 212 211 210 211 211
222 207 203 215 236 244 228 219 218 225 221 242 256 263 264 257 260 264 257 243 241 242 238 250 260 268 273 272 275 281 285 284 280 280 288 292 290 290 289 285 275 272 259 271 270 283 286 284 279 274 269 264 260 254 251 246 246 243 237 231 226 222 220 218 216 215 214 213 212 211 210 210 209 210
212 199 193 198 226 236 238 241 231 233 248 254 256 260 266 268 270 265 253 258 263 264 270 272 273 277 282 287 288 289 289 289 289 291 287 283 282 286 286 288 291 283 275 270 275 278 279 279 279 280 273 265 264 257 252 249 242 238 234 231 226 222 219 217 216 214 212 211 211 210 208 208 208 208
193 171 176 192 245 246 246 248 236 215 189 247 252 254 261 267 270 266 257 232 248 256 260 263 268 272 277 280 279 276 274 273 277 283 285 282 287 293 296 293 294 290 290 279 260 272 279 270 272 276 273 264 262 259 252 249 244 233 230 228 225 222 219 217 215 213 211 210 210 209 208 207 207 207
71 75 247 223 225 238 247 244 213 182 196 239 246 251 257 266 266 267 272 295 282 250 255 265 270 272 273 273 272 271 271 271 267 267 274 282 290 288 291 292 295 294 284 273 269 272 265 273 272 276 272 268 254 255 253 248 247 239 226 225 223 220 218 216 214 212 211 208 207 208 207 206 202 200
48 229 240 240 235 239 246 218 207 216 216 237 240 242 247 257 267 270 316 303 307 311 311 301 304 300 291 287 290 293 288 280 277 269 271 280 277 284 289 291 295 295 277 261 258 274 278 280 273 275 280 268 256 235 239 239 238 237 231 220 221 220 216 216 213 212 211 208 207 206 204 203 187 198
317 273 273 243 244 251 252 246 216 212 215 228 237 227 229 247 264 307 301 292 301 304 304 304 305 303 306 304 303 304 303 298 293 282 277 277 285 287 286 287 285 285 288 282 279 281 280 273 271 261 260 267 271 241 229 229 229 228 225 224 223 213 214 216 216 215 211 208 207 205 202 195 181 199
211 232 232 204 226 229 235 236 226 220 220 226 233 225 231 230 276 348 291 300 290 300 306 304 304 305 308 310 311 310 309 301 300 297 292 286 284 277 278 281 284 282 280 279 287 280 279 276 273 270 258 251 254 259 254 257 241 232 219 217 217 216 199 206 209 213 212 211 208 204 200 189 188 195
216 228 225 212 231 230 217 225 229 227 225 220 230 236 236 264 287 274 289 298 309 309 306 305 304 306 311 316 315 310 304 301 301 301 296 289 284 275 264 267 278 286 287 288 288 282 281 272 261 259 252 243 245 241 254 246 242 245 224 217 213 208 205 205 200 210 205 204 206 205 201 194 192 196
254 178 201 236 243 234 232 233 235 232 229 222 242 248 259 257 254 268 276 304 311 310 308 307 306 308 311 313 314 311 308 305 304 301 297 294 288 280 278 275 270 272 280 289 287 284 277 269 262 249 245 232 241 240 234 238 240 227 228 220 216 214 210 205 198 200 198 195 201 189 191 190 193 197
223 209 180 192 50 315 260 257 259 259 254 251 270 246 240 243 268 253 297 308 308 308 307 307 309 309 310 311 310 310 308 305 302 298 295 294 291 286 285 285 283 279 282 286 287 283 278 272 263 243 230 223 224 225 235 232 234 230 221 210 218 215 203 194 197 196 195 188 184 170 177 189 201 194
160 132 128 254 252 248 251 254 267 275 248 192 143 143 156 189 214 258 308 309 310 308 307 306 306 304 308 307 302 304 304 300 297 296 297 294 291 286 284 284 287 289 291 290 288 286 283 278 264 235 215 213 219 226 229 240 225 215 211 208 212 200 188 189 193 188 186 182 182 177 190 194 187 187
141 159 211 251 263 249 240 240 214 186 125 148 137 127 135 100 81 34 342 323 313 306 305 304 306 307 310 310 309 306 304 305 300 304 303 309 304 305 305 304 300 296 290 289 288 288 290 286 253 222 211 208 213 224 229 231 237 216 191 211 201 172 196 182 185 181 173 182 187 188 195 189 184 175
164 295 245 283 51 355 25 95 99 110 115 96 80 69 63 65 50 35 339 325 310 298 306 304 305 308 308 308 308 308 314 310 301 304 306 308 303 307 307 305 301 304 305 302 297 295 302 298 241 215 209 210 216 222 227 229 239 225 199 197 196 211 188 189 188 181 182 183 182 177 166 172 177 183
210 359 136 165 132 122 110 85 78 69 73 91 95 80 61 59 39 22 359 351 305 281 294 300 300 300 304 310 310 310 311 302 300 311 310 309 304 308 311 309 307 308 310 314 316 319 319 328 259 212 216 212 216 221 223 230 231 223 213 199 205 205 164 189 190 188 173 166 165 175 182 185 183 186
59 99 134 111 127 144 132 113 92 98 96 87 82 78 58 32 33 17 357 339 329 313 312 312 314 310 313 309 311 312 308 307 309 315 315 311 310 310 313 308 307 315 320 322 325 327 333 332 309 217 212 216 223 226 219 221 221 206 208 202 208 214 197 194 192 180 155 160 176 177 186 194 192 187
137 141 140 141 144 139 137 125 116 112 103 101 86 63 42 23 8 3 341 339 322 319 314 311 310 312 314 312 317 316 311 308 310 315 317 313 315 311 316 314 312 316 317 319 322 327 333 330 330 225 211 216 58 44 300 223 202 193 180 197 198 215 205 186 180 168 163 177 174 172 177 191 196 193
152 147 151 133 114 96 103 100 99 86 63 62 57 50 26 4 357 352 341 345 328 321 317 311 306 305 311 311 314 315 313 311 309 313 315 311 315 314 316 312 317 320 322 324 327 332 333 329 333 293 195 172 141 103 51 28 219 154 171 184 181 174 134 123 173 173 173 174 169 178 189 190 193 193
147 134 127 128 131 140 130 125 118 104 82 74 51 359 333 2 3 349 345 338 319 314 314 319 320 321 321 318 316 312 310 311 309 313 318 325 322 323 321 318 318 317 320 323 326 328 330 327 344 321 179 162 177 158 92 46 53 10 196 182 186 185 194 172 167 188 179 163 177 188 189 194 195 179
137 140 139 140 145 141 133 133 126 118 107 100 65 6 356 346 351 338 330 317 309 311 320 319 315 321 320 320 318 312 312 314 314 315 318 319 315 315 323 323 324 318 319 322 321 327 330 333 348 359 338 171 160 162 115 126 63 57 7 277 176 185 195 176 171 178 188 180 186 191 195 190 187 177
151 136 138 131 133 138 140 142 131 121 111 100 101 359 347 338 327 325 322 313 328 321 326 324 323 323 322 326 324 322 320 315 310 311 317 322 323 331 331 321 316 317 319 320 327 334 333 335 355 10 5 349 314 148 146 79 38 30 27 344 291 184 177 169 166 196 192 189 183 188 177 193 191 183
143 149 143 147 148 155 145 149 144 141 121 90 46 4 324 324 324 327 335 332 328 324 324 323 330 334 329 328 325 320 320 320 322 321 321 323 324 326 328 327 319 318 323 323 327 334 338 350 358 10 6 2 4 355 23 84 55 38 39 42 24 304 207 179 181 185 186 188 184 174 166 117 75 101
129 123 129 128 137 128 128 123 119 99 90 71 34 301 323 333 335 329 332 330 323 323 319 328 336 333 331 334 329 323 315 313 312 314 316 321 323 319 316 307 301 318 320 322 331 334 345 352 356 360 1 350 336 349 53 101 132 77 45 37 32 42 330 245 193 193 187 170 154 168 158 150 149 143
131 129 126 124 124 125 125 124 121 133 118 139 282 271 35 358 338 349 336 341 327 325 333 337 341 338 334 333 331 328 322 318 320 321 324 321 320 324 328 326 330 336 329 325 329 334 340 342 342 344 353 346 334 264 56 40 33 21 27 23 26 27 26 18 286 192 168 157 171 175 160 160 147 148
127 121 115 117 124 125 130 135 146 144 132 108 346 16 35 22 21 338 320 337 326 332 333 341 344 336 334 332 328 325 320 321 323 325 327 327 329 327 335 337 333 334 332 326 322 319 317 326 338 352 2 2 16 35 42 36 35 26 26 20 21 32 35 34 49 58 57 182 185 167 130 140 138 162
127 127 131 127 124 129 140 143 159 153 118 23 29 16 31 30 349 347 356 349 343 348 345 338 337 335 332 329 326 322 320 324 328 326 325 330 334 334 334 334 330 326 313 311 312 311 325 326 337 354 8 16 17 20 36 32 28 27 28 27 25 16 34 45 43 58 60 54 51 47 1 173 161 173
135 134 134 137 136 144 156 160 133 105 126 149 84 77 32 24 26 11 353 347 345 342 335 334 335 336 331 328 323 321 327 331 328 326 330 329 331 332 329 327 323 325 330 333 330 330 329 336 341 349 14 15 4 15 25 26 30 24 25 29 26 28 24 14 13 52 57 44 35 50 54 57 70 77
141 138 137 145 147 153 151 128 115 114 131 133 145 102 72 47 36 10 351 344 341 337 335 341 333 329 330 330 335 334 333 333 330 324 325 331 335 335 334 336 338 338 345 346 342 340 341 342 344 353 10 8 5 11 19 30 28 22 22 24 28 27 26 18 34 52 58 55 31 44 67 71 77 82